Regional Weather Roundup
Issued by NWS

Home | Current Version | Previous Version | Graphics & Text | Print | Product List | Glossary On
Versions: 1 2 3 4 5 6 7 8 9 10 11 12 13 14 15 16 17 18 19 20 21 22 23 24 25 26 27 28 29 30 31 32 33 34 35 36 37 38 39 40 41 42 43 44 45 46 47 48 49 50
000
ASUS44 KMEG 011310
RWRTN
TENNESSEE HOURLY STATE WEATHER ROUNDUP
NATIONAL WEATHER SERVICE MEMPHIS TN
800 AM CDT WED OCT 01 2014

TNZ002-004-019-021-049-052-054-088>092-011400-
WEST TENNESSEE

CITY           SKY/WX    TMP DP  RH WIND       PRES   REMARKS
MEMPHIS INTL   MOSUNNY   71  61  70 S6        29.92S
NWS MEMPHIS      N/A     67 N/A N/A MISG        N/A
JACKSON        SUNNY     62  59  90 CALM      29.95R
DYERSBURG      SUNNY     64  54  68 SE3       29.94R
UNION CITY     SUNNY     61  57  88 CALM      29.93R
PARIS          SUNNY     59  55  88 CALM      29.96R
HUNTINGDON     PTSUNNY   60  58  93 E3        29.96R
LEXINGTON      SUNNY     57  57 100 CALM      29.96R
SAVANNAH       SUNNY     63  63 100 CALM      29.97R
$$

TNZ008-025-027-028-033-062-065-066-011400-
NORTH MIDDLE TENNESSEE

CITY           SKY/WX    TMP DP  RH WIND       PRES   REMARKS
NASHVILLE      PTSUNNY   60  56  86 CALM      29.99R
PORTLAND       SUNNY     57  54  88 CALM      29.98R
CLARKSVILLE    PTSUNNY   60  56  86 CALM      29.97R FOG
LEBANON        SUNNY     56  52  86 CALM      29.98R
SMYRNA         SUNNY     57  55  93 CALM      30.00R
MURFREESBORO   SUNNY     58  53  83 CALM      29.99R
COOKEVILLE     SUNNY     57  55  94 CALM      30.00R
LIVINGSTON     PTSUNNY   63  55  75 CALM      30.01
GALLATIN       SUNNY     58  57  96 CALM      30.00R
CROSSVILLE     PTSUNNY   60  54  80 CALM      30.05R
$$

TNZ061-075-076-078-094-096-097-011400-
SOUTH MIDDLE TENNESSEE

CITY           SKY/WX    TMP DP  RH WIND       PRES   REMARKS
LEWISBURG      MOSUNNY   55  54  97 E10G155   29.99R
FAYETTEVILLE   SUNNY     63  61  94 S7G116    30.00S
TULLAHOMA      SUNNY     55  52  88 CALM      30.02R
WINCHESTER     SUNNY     57  55  94 CALM      30.01R
MCMINNVILLE    SUNNY     57  57 100 CALM      30.01R
COLUMBIA       PTSUNNY   61  61 100 CALM      29.98R
SHELBYVILLE    PTSUNNY   63  57  82 CALM      30.00R
$$

TNZ017-018-042-046-047-011400-
NORTHEAST TENNESSEE

CITY           SKY/WX    TMP DP  RH WIND       PRES   REMARKS
TRI CITIES     MOSUNNY   57  53  86 CALM      30.05R FOG
ELIZABETHTON   SUNNY     57  54  88 E5        30.06R
$$

TNZ012-013-036-069-073-074-011400-
CENTRAL EAST TENNESSEE

CITY           SKY/WX    TMP DP  RH WIND       PRES   REMARKS
KNOXVILLE      PTSUNNY   59  56  89 CALM      30.02R FOG
OAK RIDGE      FOG       57  56  96 E3        30.04R VSB 1/2
GATLINBURG     SUNNY     55  54  94 CALM      30.03R
MORRISTOWN     SUNNY     59  57  94 CALM      30.05R
$$

TNZ083-085-099-011400-
SOUTHEAST TENNESSEE

CITY           SKY/WX    TMP DP  RH WIND       PRES   REMARKS
CHATTANOOGA    PTSUNNY   63  59  87 CALM      30.02R
$$

SKY/WX REPORTED AS FAIR MEANS FEW OR NO CLOUDS BELOW
12 THOUSAND FEET.



USA.gov is the U.S. government's official web portal to all federal, state and local government web resources and services.